Find Starlink 31036

NORAD ID: 58533 Int'l Des: 2023-192 Owner: SPXS Country: US Constellation: starlink operational
LEOCIRCULAR

Live Position

Loading 3D Globe...

About Starlink 31036

Description loading...

Upcoming Passes

Passes for default location (London). Set your location on the main map for personalized predictions.

Altitude History

Loading altitude history...

Two-Line Element Set

1 58533U 23192C 26126.47374120 .00000679 00000-0 31242-4 0 9994
2 58533 53.1616 154.2814 0000992 63.8560 296.2545 15.34376680134836
Epoch: May 6, 2026 • Age: 5 hours

Current Status

Altitude 473.1 km
Velocity 7.63 km/s
Sub-Earth Point -32.56°S, 22.32°E
Launch Date Dec 8, 2023
Age 2.4 years
Type internet

Technical Details

Classification Payload
Mass 730.00 kg
Dry Mass 700.00 kg
Total Mass 730.00 kg
Length 0.30 m
Diameter 4.10 m
Span 29.00 m
Shape Box + pan
Manufacturer SPXS
Bus Type Starlink V2M
Phase Status In Orbit
Owner/State SPXS/US

Most Searched